Flag for Russia Weather past 2 weeks in Voronezh, Russia

Now
28 °F

Low clouds.


Feels Like: 25 °F
Forecast: 23 / 31 °F
Wind: 3 mph from North

Location: Voronez

Current Time: Mar 1, 2015 at 10:46:31 PM

Latest Report: Mar 1, 2015 at 10:00 PM


Visibility: N/A

Pressure: 30.04 "Hg

Humidity: 86%

Dew point: 25 °F

Location of VoronezhLocation

Historic Weather in Voronezh — Graph

°F

Voronezh temperature yesterday

Maximum temperature yesterday: 34 °F (at 12:00 AM)
Minimum temperature yesterday: 30 °F (at 7:00 PM)
Average temperature yesterday: 33 °F

Past Weeks' High & Low Weather Summary

 TemperatureHumidityPressure
High41 °F (Feb 24, 2:30 PM)100% (Feb 26, 5:00 PM)30.66 "Hg (Feb 26, 5:00 PM)
Low-6 °F (Feb 18, 4:30 AM)36% (Feb 18, 2:30 PM)30.01 "Hg (Feb 19, 7:00 AM)
Average27 °F77%30.23 "Hg
* Reported Feb 14 9:00 PM — Mar 1 9:30 PM, Voronezh, Weather by CustomWeather, © 2015

Note: Actual official high and low records may vary slightly from our data, if they occured in-between our weather recording intervals... More about our weather records

Advertising

Voronezh weather history for previous 24 hours

 ConditionsComfort  
Time TempWeatherWind HumidityBarometerVisibility
9:30 PM
Sun, Mar 1
28 °FSnow flurries. Low clouds.3 mph86%30.04 "Hg6 mi
9:00 PM28 °FLow clouds.1 mph86%30.07 "Hg6 mi
8:30 PM28 °FOvercast.3 mph86%30.07 "HgN/A
8:00 PM28 °FOvercast.3 mph86%30.07 "Hg6 mi
7:30 PM28 °FLow clouds.6 mph86%30.07 "HgN/A
7:00 PM30 °FOvercast.6 mph86%30.07 "HgN/A
6:00 PM30 °FOvercast.6 mph86%30.07 "HgN/A
5:30 PM30 °FOvercast.3 mph86%30.07 "HgN/A
5:00 PM30 °FBroken clouds.6 mph86%30.07 "HgN/A
4:30 PM30 °FBroken clouds.6 mph86%30.07 "HgN/A
4:00 PM30 °FBroken clouds.6 mph86%30.07 "HgN/A
3:30 PM30 °FMostly cloudy.3 mph86%30.07 "HgN/A
3:00 PM32 °FMostly cloudy.6 mph80%30.07 "HgN/A
2:30 PM32 °FMostly cloudy.6 mph80%30.07 "HgN/A
2:00 PM32 °FMostly cloudy.6 mph80%30.07 "HgN/A
1:30 PM32 °FPassing clouds.6 mph80%30.07 "HgN/A
1:00 PM32 °FLow clouds.3 mph80%30.09 "HgN/A
12:30 PM30 °FLow clouds.6 mph86%30.09 "HgN/A
12:00 PM30 °FLow clouds.6 mph86%30.09 "HgN/A
11:30 AM30 °FLow clouds.6 mph86%30.09 "HgN/A
11:00 AM30 °FLow clouds.6 mph86%30.09 "HgN/A
10:30 AM30 °FSnow flurries. Low clouds.3 mph86%30.09 "HgN/A
10:00 AM28 °FSnow flurries. Low clouds.3 mph93%30.09 "Hg6 mi
9:30 AM28 °FSnow flurries. Ice fog.6 mph93%30.12 "Hg3 mi
9:00 AM28 °FSnow flurries. Low clouds.6 mph93%30.12 "Hg4 mi
8:30 AM28 °FSnow flurries. Low clouds.3 mph93%30.09 "HgN/A
8:00 AM28 °FSnow flurries. Low clouds.6 mph93%30.12 "Hg6 mi
7:30 AM30 °FOvercast.6 mph80%30.09 "HgN/A
7:00 AM30 °FOvercast.3 mph80%30.09 "HgN/A
6:00 AM30 °FLow clouds.6 mph86%30.09 "HgN/A
5:30 AM30 °FLow clouds.8 mph86%30.09 "HgN/A
5:00 AM30 °FLow clouds.6 mph86%30.09 "HgN/A
4:30 AM30 °FLow clouds.6 mph86%30.09 "HgN/A
4:00 AM30 °FLow clouds.3 mph93%30.09 "HgN/A
3:30 AM30 °FLow clouds.3 mph93%30.12 "HgN/A
3:00 AM30 °FOvercast.1 mph93%30.12 "HgN/A
2:30 AM30 °FLight snow. Low clouds.3 mph93%30.12 "HgN/A
2:00 AM30 °FLow clouds.1 mph93%30.12 "HgN/A
1:00 AM32 °FLow clouds.6 mph87%30.12 "HgN/A
12:00 AM32 °FLow clouds.6 mph87%30.12 "HgN/A
11:30 PM
Sat, Feb 28
32 °FLow clouds.6 mph87%30.12 "HgN/A
11:00 PM32 °FLow clouds.8 mph87%30.12 "HgN/A
10:30 PM32 °FLow clouds.6 mph87%30.12 "HgN/A
10:00 PM32 °FLow clouds.8 mph87%30.12 "HgN/A
Weather by CustomWeather, © 2015

See weather overviewHow to use our weather pages